Weather in Lisbon

Portugal     38˚42′58″N   9˚08′29″W
temp.,
°C
wind,
m/s
gust,
m/s
humid.,
%
clouds,
%
prec.,
mm/h
press.,
hPa
HPBL,
m
1 december, tue
tue100:00+14˚e377599 0.0 1021326
03:00+13˚ene4772100 0.0 1021267
06:00+12˚ene477467 0.0 1021248
09:00+13˚ene366933 0.0 1023189
12:00+16˚ene355821 0.0 1022250
15:00+18˚ene23500 0.0 1021387
18:00+16˚ne23620 0.0 1021102
21:00+14˚n22640 0.0 102165
2 december, wed
wed200:00+13˚n11644 0.0 102123
03:00+13˚nnw126022 0.0 101936
06:00+12˚n127428 0.0 101833
09:00+12˚nne11730 0.0 101758
12:00+16˚ne135717 0.0 1017517
15:00+17˚ene2352100 0.0 1015756
18:00+14˚ne375599 0.0 1016470
21:00+13˚ne4105230 0.0 1017534
3 december, thu
thu300:00+11˚ene495516 0.0 1017369
03:00+10˚ene48590 0.0 1017288
06:00+9˚ene36570 0.0 1016245
09:00+10˚ne24520 0.0 1017199
12:00+15˚nnw23370 0.0 1016535
15:00+15˚nw576014 0.0 1014861
18:00+14˚nw696934 0.1 10141176
21:00+13˚wnw5107056 0.1 10141113
4 december, fri
fri400:00+13˚wnw7127257 0.3 10121468
03:00+13˚wnw81468100 0.4 10091670
06:00+14˚wnw9156683 0.9 10071574
09:00+13˚nw11176293 2.0 10071723
12:00+12˚nw11165679 2.4 10081978
15:00+11˚nw10165895 1.1 10071782
18:00+10˚nw9155795 1.9 10081739
21:00+10˚nw9155897 0.9 10091685
5 december, sat
sat500:00+9˚nnw9156095 1.7 10101678
03:00+9˚nnw8136091 0.5 10101598
06:00+9˚nnw7126294 1.1 10111466
09:00+10˚nnw6115872 0.4 10131500
12:00+12˚nnw7115062 0.8 10141725
15:00+12˚nnw795237 0.3 10141651
18:00+11˚nnw596361 0.6 10151141
21:00+11˚nnw596656 0.4 10161139